Regional Weather Roundup
Issued by NWS Green Bay, WI

Home | Current Version | Previous Version | Graphics & Text | Print | Product List | Glossary Off
Versions: 1 2 3 4 5 6 7 8 9 10 11 12 13 14 15 16 17 18 19 20 21 22 23 24 25 26 27 28 29 30 31 32 33 34 35 36 37 38 39 40 41 42 43 44 45 46 47 48 49 50

000
ASUS43 KGRB 290000
RWRGRB

NORTH-CENTRAL AND NORTHEAST WISCONSIN REGIONAL WEATHER ROUNDUP
NATIONAL WEATHER SERVICE GREEN BAY WI
700 PM CDT FRI APR 28 2017

WIZ005-009-010>012-018-019-290100-
NORTH CENTRAL WISCONSIN

CITY           SKY/WX    TMP DP  RH WIND       PRES   REMARKS
IRONWOOD       CLOUDY    37  29  72 N12       29.98R
MANITOWISH WTR NOT AVBL
ARBOR VITAE    NOT AVBL
EAGLE RIVER    NOT AVBL
LAND O LAKES   NOT AVBL
RHINELANDER    PTCLDY    41  29  62 N7        29.95R
PHILLIPS       NOT AVBL
ANTIGO         NOT AVBL
TOMAHAWK       NOT AVBL
MERRILL        NOT AVBL
$$

WIZ013-073-290100-
NORTHEAST WISCONSIN

CITY           SKY/WX    TMP DP  RH WIND       PRES   REMARKS
IRON MOUNTAIN  MOCLDY    43  25  49 NW8       29.94R
MARINETTE      MOCLDY    48  30  49 N7        29.94R
$$

WIZ017-030-035>037-045-290100-
CENTRAL WISCONSIN

CITY           SKY/WX    TMP DP  RH WIND       PRES   REMARKS
MEDFORD        NOT AVBL
WAUSAU         MOCLDY    45  30  55 W7        29.93R
MOSINEE        CLOUDY    45  34  65 NW5       29.96R
MARSHFIELD     CLOUDY    45  30  55 NW7       29.94R
WISC RAPIDS    PTCLDY    48  32  53 NW3       29.97R
STEVENS POINT  NOT AVBL
WAUPACA        NOT AVBL
SHAWANO        NOT AVBL
CLINTONVILLE   NOT AVBL
WAUTOMA        CLOUDY    48  34  58 NW5       29.97R
$$

WIZ038-039-048-051-290100-
FOX VALLEY

CITY           SKY/WX    TMP DP  RH WIND       PRES   REMARKS
NWS GREEN BAY  CLOUDY    50  37  61 NW6       29.93R
APPLETON       MOCLDY    48  32  53 NW6       29.92R
OSHKOSH        LGT RAIN  49  38  65 CALM      29.92R
FOND DU LAC    LGT RAIN  48  38  68 NE5       29.93R
$$

WIZ022-050-052-290100-
EAST CENTRAL WISCONSIN

CITY           SKY/WX    TMP DP  RH WIND       PRES   REMARKS
EPHRAIM        NOT AVBL
WASHINGTON ISL NOT AVBL
STURGEON BAY   MOCLDY    42  36  79 SE5       29.94R
MANITOWOC      NOT AVBL
SHEBOYGAN      LGT RAIN  45  40  82 CALM      29.92S
$$

LMZ563-521-522-541>543-290100-
LAKESHORE

STATION/POSITION TIME  TEMP    WIND        PRES    VSBY  WAVE
                       AIR SEA DIR/SP/G                  HT/PER
                 (UTC) (F)     (DEG/KT/KT) (MB)    (MI)  (FT/S)
SHEBOYGAN LKSHOR 2300   40      90/  5/  5 1013.8R
KEWAUNEE LKSHORE 2330   41     150/  8/  9 1013.0F
NORTHPORT PIER   2340   41     160/  3/  6 1013.9S
CHAMBERS ISLAND  2330   47     190/  2/  4 1013.2S
MENOMINEE LKSHOR 2330   49     310/  6/  9 1012.5R
$$



USA.gov is the U.S. government's official web portal to all federal, state and local government web resources and services.